Wind_Speed
6 7 10 7 5 2 11 11 18 6 20 20 7 8 22 18 32 28 23 20 16 20 25 27 28 29 32 34 35 38 39 35 20 28 33 28 29 29 31 33 32 30 28 27
13 16 8 9 9 8 11 20 25 29 31 20 15 14 12 29 34 31 24 14 17 22 22 21 23 29 32 35 39 42 43 39 35 35 32 36 34 32 35 39 39 39 38 38
16 18 8 13 11 12 15 17 26 28 26 13 22 19 17 25 33 35 29 21 16 22 26 26 26 28 29 32 34 35 39 42 36 34 33 35 37 37 39 46 39 42 46 48
18 21 14 17 18 20 20 21 23 20 21 22 22 22 19 26 31 35 27 20 18 19 26 28 30 33 35 35 37 37 38 41 42 39 38 36 36 38 42 43 44 43 47 61
20 22 14 17 23 19 20 23 20 22 21 24 17 26 21 33 38 40 36 18 12 20 26 29 32 33 35 38 40 42 42 42 42 43 43 42 43 41 44 46 46 49 53 54
18 23 21 22 21 23 23 24 25 22 22 23 6 16 17 33 41 40 38 31 30 39 40 35 36 35 36 38 40 42 44 44 45 45 45 45 47 48 48 50 52 53 54 55
21 22 25 24 22 25 22 24 24 22 22 19 14 16 27 30 35 35 35 35 40 43 46 48 47 46 43 41 42 44 45 46 47 47 47 48 49 50 52 55 56 56 58 60
17 20 26 24 16 18 21 25 25 26 19 18 13 24 23 25 37 41 41 41 45 51 54 55 55 50 48 47 47 46 46 46 46 46 47 49 50 50 53 56 58 60 61 61
16 21 23 30 26 18 22 25 29 26 21 21 20 26 30 35 38 42 45 46 51 56 57 54 50 46 52 49 47 46 46 45 44 45 45 47 49 52 54 56 60 61 62 62
21 23 24 28 29 25 27 25 26 29 29 27 23 28 41 45 47 47 48 54 55 56 55 53 54 55 49 45 44 43 43 43 43 43 43 45 47 51 55 57 61 64 66 66
22 24 17 28 28 31 29 25 27 28 29 29 29 27 35 41 48 52 55 57 57 56 54 51 49 45 43 42 41 40 41 41 42 42 43 44 45 49 51 54 59 63 67 70
26 24 23 23 25 33 32 31 29 30 28 28 31 32 33 37 43 49 52 55 58 56 49 38 36 36 37 40 40 40 40 40 39 39 40 41 43 45 46 47 49 54 61 64
26 29 28 23 27 33 32 30 32 29 30 30 33 30 29 37 46 47 48 50 51 52 42 40 32 32 33 37 39 40 39 39 38 37 37 38 41 41 43 44 46 47 48 57
30 29 29 27 27 32 32 30 31 32 35 34 35 33 28 31 39 40 41 46 48 53 43 37 37 35 33 35 39 41 41 38 36 31 35 39 40 40 39 35 37 38 40 43
27 27 28 26 24 28 31 32 32 33 34 37 38 40 34 32 38 42 44 48 46 41 37 36 42 39 34 34 34 36 30 24 34 39 38 37 39 40 39 38 35 40 35 35
23 24 28 25 26 25 26 26 29 31 33 32 33 35 32 32 40 43 43 44 44 40 34 34 39 36 40 34 31 33 40 42 44 40 40 40 40 38 34 38 36 34 35 35
24 21 22 19 24 24 22 25 27 27 24 27 31 31 32 35 39 42 42 39 37 37 36 35 36 35 36 29 44 46 44 47 44 44 45 44 44 41 40 39 40 44 44 45
24 23 24 22 23 21 24 26 28 26 21 26 30 32 37 39 39 39 39 39 38 37 36 32 35 36 36 41 42 46 48 47 51 50 49 48 47 47 43 38 39 40 40 38
25 26 27 26 26 24 21 29 29 28 28 29 30 32 34 37 38 38 37 37 34 33 38 39 37 37 39 42 45 46 48 52 50 51 51 49 50 49 47 45 41 41 43 41
27 27 27 27 29 29 25 31 32 30 32 32 35 36 36 35 37 39 38 37 38 39 40 42 41 42 44 46 48 48 49 49 47 48 49 50 49 49 48 48 46 44 44 42
25 28 25 27 29 29 30 33 34 35 32 31 32 33 35 37 40 41 41 41 41 41 42 45 45 47 49 45 45 48 45 45 46 45 45 50 53 52 50 49 48 46 45 43
28 28 28 30 28 29 31 31 35 37 40 38 38 37 37 38 39 42 43 43 45 47 49 43 41 42 48 47 48 51 52 52 48 48 50 53 50 51 54 52 49 48 49 47
29 32 32 30 30 33 36 35 38 40 40 40 37 37 39 39 40 43 45 46 48 51 48 48 39 38 46 51 53 53 59 56 50 44 42 45 44 44 48 50 49 46 47 45
27 31 34 34 32 35 36 38 39 40 42 40 40 41 40 42 45 48 48 49 47 48 45 42 44 49 52 46 53 54 55 41 37 39 41 46 48 47 45 43 42 41 40 41
29 36 35 34 34 34 35 38 40 40 40 41 41 42 47 47 49 51 51 48 44 41 34 38 41 41 45 43 43 38 39 36 35 38 40 43 45 43 42 41 40 40 39 39
33 36 35 35 36 36 36 38 38 39 39 39 41 43 47 49 48 46 37 29 29 32 40 45 45 40 38 36 36 36 40 41 41 41 40 40 40 39 37 36 36 36 34 33
Wind_Direction
211 212 227 229 238 143 188 203 164 188 253 267 268 229 240 238 263 273 276 290 294 277 274 274 275 275 277 279 278 278 277 284 264 274 282 269 272 275 279 281 280 278 273 265
227 234 238 228 205 203 199 209 202 212 235 273 281 257 240 243 262 275 281 286 277 275 276 278 275 273 274 276 279 281 282 280 277 275 272 278 276 277 278 278 275 274 271 267
246 253 242 229 240 234 226 219 221 231 254 272 271 265 250 258 263 271 278 283 280 276 276 276 278 277 275 276 277 281 286 290 286 282 277 274 274 277 275 276 260 274 273 268
258 261 255 253 244 247 246 251 255 270 272 273 269 280 264 254 269 277 282 289 303 285 275 271 273 275 275 271 271 273 276 281 286 284 282 277 275 275 274 269 274 270 272 270
253 267 268 267 263 269 273 268 263 264 266 269 272 275 257 261 269 275 284 292 287 288 286 283 276 274 275 276 275 275 275 274 276 279 280 279 278 275 275 275 274 269 268 270
262 266 266 261 264 266 261 266 271 266 267 266 252 292 263 255 265 277 285 289 288 283 282 282 279 276 273 273 274 274 275 276 275 275 275 275 275 275 274 273 274 274 275 277
265 271 264 261 260 267 272 268 270 269 267 271 251 264 258 263 269 277 287 286 279 284 288 290 290 287 283 277 276 275 274 274 276 276 275 274 273 273 274 275 275 273 275 277
274 264 279 289 274 281 281 280 278 274 273 263 232 238 256 266 263 265 268 272 276 279 283 285 288 288 285 281 280 277 277 278 277 276 277 277 276 274 271 271 272 272 273 275
272 266 269 277 285 285 277 280 283 285 280 268 240 253 254 249 254 259 265 272 275 274 277 282 284 287 290 286 284 283 281 279 279 278 277 276 276 276 275 273 272 271 272 271
277 268 274 278 282 287 276 276 276 280 279 276 268 255 258 264 264 268 267 269 272 273 277 281 286 288 286 285 283 282 281 280 278 277 277 276 276 276 275 275 275 275 273 270
271 280 273 275 289 281 280 280 276 273 277 280 275 251 257 264 272 271 273 280 283 284 283 286 286 284 284 284 283 281 281 281 281 280 279 277 277 277 277 277 276 273 272 271
284 281 276 275 276 276 283 286 284 283 285 279 281 280 275 271 268 270 278 281 283 286 291 294 291 287 284 283 284 285 284 282 280 279 280 282 283 285 286 284 282 278 273 272
279 280 280 274 272 275 278 279 281 284 283 284 277 283 278 272 273 277 282 285 291 292 297 295 296 288 285 286 284 283 284 282 281 282 283 288 288 289 289 288 285 281 275 268
281 280 277 273 271 276 280 283 286 289 290 292 290 290 280 270 273 271 273 279 283 289 301 304 299 292 289 284 285 284 281 282 286 281 288 294 289 292 291 293 289 286 293 285
278 274 271 274 270 271 279 285 287 287 289 289 292 287 289 275 275 282 283 284 293 301 309 306 296 299 290 289 291 292 275 289 304 302 298 294 293 292 287 288 280 289 285 284
259 260 269 273 275 273 271 279 282 282 282 285 282 283 285 276 272 276 280 285 292 301 302 294 296 298 292 272 283 274 287 279 295 290 292 293 289 288 287 288 288 285 289 292
276 264 260 259 268 272 278 273 278 277 280 285 281 280 279 276 278 285 293 299 300 299 296 295 291 291 269 278 293 292 288 294 294 293 295 294 291 287 283 278 275 276 281 283
273 273 273 271 269 273 276 276 276 284 283 280 278 280 282 285 290 296 296 294 297 296 296 294 290 287 279 282 285 286 289 292 295 296 296 293 289 287 285 283 283 284 283 283
270 273 275 278 277 278 282 283 291 294 294 285 286 286 286 288 288 289 292 295 295 295 293 292 286 283 280 282 283 285 286 290 291 291 291 290 290 290 290 288 286 284 285 287
262 264 267 272 277 281 285 283 291 294 287 293 289 286 282 283 287 291 294 293 293 292 293 290 287 287 287 286 286 285 284 284 288 287 288 289 288 287 286 286 287 285 285 285
266 271 277 279 281 285 286 293 290 290 295 288 289 287 290 292 293 294 289 288 291 293 289 290 289 289 287 288 285 283 282 288 291 288 291 289 285 286 288 286 286 288 286 286
273 273 273 274 280 283 286 287 290 292 293 294 293 294 293 288 284 286 291 292 293 291 293 289 291 282 275 273 276 281 289 293 288 284 290 293 288 289 289 292 292 291 290 285
275 280 285 289 294 295 290 292 292 292 297 297 297 294 291 290 292 291 293 292 289 290 289 290 278 281 275 270 278 284 286 287 288 294 292 294 290 288 290 291 287 285 286 285
277 281 282 286 292 287 293 295 293 292 295 296 292 293 295 294 294 294 294 295 295 293 292 281 274 264 274 292 292 287 291 299 289 292 292 286 286 286 288 289 290 286 284 281
284 280 282 289 289 293 294 292 293 294 293 293 296 296 295 296 295 298 298 294 289 284 277 274 285 295 294 296 300 298 299 298 297 297 293 290 290 290 288 289 288 287 285 283
276 279 285 290 291 292 290 289 291 291 292 293 292 293 296 296 297 298 295 291 293 288 294 297 301 305 301 300 298 298 299 301 300 296 294 294 294 294 293 291 290 288 285 284
Height
5878 5878 5878 5879 5880 5881 5881 5884 5885 5885 5883 5883 5886 5888 5887 5884 5878 5880 5883 5887 5887 5886 5885 5885 5887 5884 5881 5882 5882 5881 5879 5880 5883 5883 5888 5883 5882 5884 5886 5886 5885 5886 5888 5887
5875 5873 5876 5876 5877 5878 5880 5882 5885 5883 5879 5880 5883 5883 5885 5879 5872 5875 5879 5884 5883 5881 5880 5880 5881 5877 5876 5876 5872 5870 5870 5875 5880 5882 5882 5876 5875 5877 5878 5877 5875 5874 5873 5872
5871 5871 5873 5873 5875 5876 5876 5877 5877 5877 5877 5881 5876 5878 5878 5871 5868 5869 5873 5878 5878 5876 5875 5875 5875 5873 5871 5869 5867 5865 5861 5857 5864 5867 5868 5867 5867 5868 5868 5861 5862 5864 5862 5862
5868 5868 5870 5870 5870 5870 5871 5872 5873 5875 5875 5874 5873 5873 5872 5863 5862 5860 5867 5872 5873 5871 5869 5869 5870 5868 5865 5864 5862 5860 5859 5855 5852 5854 5856 5858 5859 5858 5855 5852 5852 5855 5849 5838
5864 5863 5867 5866 5864 5868 5868 5867 5869 5869 5869 5868 5872 5867 5870 5857 5854 5852 5858 5867 5869 5867 5865 5863 5863 5862 5859 5855 5853 5851 5850 5849 5848 5846 5845 5847 5847 5847 5843 5843 5844 5842 5837 5835
5859 5859 5860 5860 5861 5861 5861 5861 5861 5863 5863 5862 5864 5861 5859 5847 5846 5848 5852 5859 5861 5859 5856 5856 5853 5851 5851 5848 5845 5843 5840 5838 5838 5838 5837 5838 5837 5835 5834 5831 5831 5830 5826 5822
5854 5854 5852 5854 5856 5854 5856 5854 5855 5857 5855 5857 5854 5851 5846 5843 5839 5842 5845 5847 5847 5847 5845 5844 5843 5840 5838 5838 5836 5833 5831 5828 5826 5826 5826 5826 5826 5825 5824 5821 5819 5818 5815 5811
5850 5848 5846 5848 5851 5852 5849 5848 5847 5846 5850 5851 5849 5845 5843 5839 5838 5838 5838 5840 5839 5837 5834 5833 5831 5828 5826 5825 5824 5822 5820 5818 5816 5815 5813 5813 5813 5814 5812 5809 5807 5806 5805 5804
5845 5843 5843 5839 5842 5846 5843 5842 5840 5840 5842 5842 5846 5840 5835 5834 5832 5830 5830 5834 5830 5826 5824 5821 5819 5818 5816 5813 5811 5810 5808 5806 5805 5804 5802 5801 5800 5800 5798 5796 5794 5793 5791 5791
5837 5838 5838 5836 5835 5838 5835 5836 5836 5833 5833 5834 5836 5834 5825 5821 5821 5822 5821 5817 5816 5814 5814 5813 5811 5808 5804 5802 5800 5798 5796 5794 5793 5792 5790 5789 5789 5787 5786 5784 5781 5778 5776 5776
5831 5832 5837 5830 5830 5826 5828 5829 5828 5828 5826 5824 5825 5827 5821 5818 5813 5810 5806 5802 5802 5802 5805 5806 5801 5796 5793 5791 5789 5787 5784 5783 5781 5780 5778 5777 5776 5775 5773 5770 5768 5764 5760 5758
5824 5825 5825 5826 5824 5819 5819 5818 5819 5817 5819 5817 5814 5815 5814 5811 5807 5801 5797 5793 5789 5789 5792 5791 5788 5786 5783 5779 5776 5774 5772 5771 5770 5768 5767 5765 5763 5761 5759 5757 5754 5749 5745 5742
5818 5816 5817 5819 5816 5812 5812 5813 5811 5810 5808 5809 5807 5808 5806 5801 5793 5792 5788 5782 5778 5775 5780 5780 5779 5776 5774 5768 5765 5762 5760 5758 5757 5756 5755 5754 5752 5749 5747 5744 5740 5736 5732 5730
5810 5809 5808 5810 5808 5804 5803 5804 5803 5801 5799 5798 5796 5796 5797 5793 5787 5784 5780 5776 5773 5769 5770 5768 5767 5764 5762 5758 5753 5751 5749 5748 5746 5744 5743 5742 5741 5739 5735 5732 5729 5726 5722 5718
5803 5801 5800 5800 5802 5798 5795 5794 5794 5792 5791 5788 5788 5784 5785 5783 5777 5772 5769 5767 5764 5763 5763 5759 5752 5752 5750 5746 5744 5740 5739 5740 5737 5734 5733 5731 5729 5728 5724 5722 5720 5717 5714 5711
5795 5794 5791 5793 5791 5791 5790 5789 5787 5784 5783 5782 5779 5777 5776 5773 5766 5764 5762 5760 5758 5757 5756 5752 5746 5743 5739 5736 5735 5733 5731 5731 5729 5727 5724 5722 5720 5719 5714 5711 5708 5706 5704 5701
5784 5785 5785 5787 5783 5782 5784 5781 5780 5777 5776 5773 5769 5768 5765 5761 5757 5754 5753 5753 5751 5748 5745 5742 5739 5736 5731 5725 5723 5720 5717 5716 5715 5712 5710 5709 5707 5707 5705 5703 5700 5697 5694 5691
5776 5776 5775 5777 5776 5777 5775 5772 5769 5769 5768 5764 5761 5758 5754 5750 5749 5747 5744 5743 5741 5738 5735 5733 5729 5726 5725 5719 5716 5712 5708 5705 5701 5698 5697 5695 5693 5691 5690 5689 5685 5683 5681 5679
5769 5769 5767 5767 5766 5768 5767 5762 5761 5760 5758 5754 5753 5750 5747 5744 5740 5738 5735 5733 5732 5729 5724 5721 5719 5717 5714 5710 5706 5702 5698 5694 5691 5688 5686 5683 5680 5678 5675 5673 5672 5669 5667 5665
5763 5763 5763 5761 5759 5758 5758 5754 5753 5753 5749 5749 5744 5741 5738 5735 5731 5728 5726 5723 5720 5717 5713 5709 5706 5703 5700 5698 5694 5690 5686 5683 5681 5677 5674 5671 5668 5665 5662 5659 5657 5655 5653 5651
5756 5754 5756 5753 5752 5752 5749 5747 5745 5743 5745 5738 5735 5730 5729 5726 5723 5719 5714 5712 5710 5708 5702 5698 5694 5690 5686 5683 5680 5677 5674 5671 5668 5665 5661 5657 5652 5651 5649 5646 5643 5641 5639 5639
5749 5749 5748 5747 5747 5746 5743 5740 5738 5735 5730 5728 5726 5724 5720 5716 5712 5707 5704 5700 5696 5690 5687 5685 5682 5677 5673 5669 5666 5663 5661 5658 5654 5650 5648 5645 5641 5638 5634 5632 5629 5627 5625 5624
5743 5740 5739 5741 5738 5734 5730 5730 5726 5724 5722 5719 5716 5711 5708 5704 5700 5697 5693 5689 5684 5680 5675 5671 5668 5665 5661 5658 5657 5652 5648 5644 5640 5638 5634 5632 5629 5625 5621 5618 5615 5613 5610 5608
5737 5735 5732 5730 5730 5725 5723 5720 5717 5715 5712 5709 5703 5701 5698 5695 5689 5684 5680 5675 5670 5665 5661 5658 5656 5652 5647 5644 5643 5642 5637 5632 5629 5628 5622 5620 5616 5612 5608 5604 5601 5598 5596 5593
5729 5723 5723 5723 5720 5719 5715 5711 5708 5705 5701 5697 5694 5690 5685 5682 5676 5671 5666 5662 5656 5652 5650 5647 5645 5640 5636 5634 5633 5629 5625 5621 5618 5613 5610 5607 5603 5599 5595 5590 5587 5584 5582 5580
5717 5716 5715 5712 5710 5708 5706 5702 5698 5694 5692 5689 5686 5680 5675 5669 5664 5659 5654 5650 5647 5646 5642 5637 5633 5630 5627 5625 5622 5619 5616 5611 5606 5601 5598 5594 5590 5586 5582 5579 5575 5572 5570 5568